Terminal Aerodrome Forecast
Issued by NWS

Home | Current Version | Previous Version | Graphics & Text | Print | Product List | Glossary On
Versions: 1 2 3 4 5 6 7 8 9 10 11 12 13 14 15 16 17 18 19 20 21 22 23 24
000
FTUS43 KFGF 131737 AAB
TAFBJI
TAF AMD
KBJI 131737Z 1318/1418 33012KT P6SM -SN OVC010
     FM132000 33012KT P6SM -SN OVC015
     FM140300 33005KT P6SM OVC008
     FM140500 31005KT P6SM OVC010
     FM140600 30005KT P6SM OVC008
     FM141700 31008KT P6SM BKN015=

USA.gov is the U.S. government's official web portal to all federal, state and local government web resources and services.